Terminal Aerodrome Forecast
Issued by NWS Twin Cities, MN

Home | Current Version | Previous Version | Graphics & Text | Print | Product List | Glossary On
Versions: 1 2 3 4 5 6 7 8 9 10 11 12 13 14 15 16 17 18
167
FTUS43 KMPX 202339
TAFEAU
TAF
KEAU 202339Z 2100/2124 18011KT 2SM -RA BR OVC008
     FM210400 23010KT 5SM BR VCSH SCT008 OVC012
     FM210700 27009KT 4SM BR BKN008
      TEMPO 2109/2113 1SM BR BKN003
     FM211400 23004KT P6SM SCT010
     FM211800 20007KT P6SM SCT250=

USA.gov is the U.S. government's official web portal to all federal, state and local government web resources and services.